STARLINK-30201, 57301

Orbit data source: Space-Track

STARLINK-30201, 57301 is a payload satellite owned by SpaceX/Seattle (US) in LEO that was launched on Mon, 10 Jul 2023 UTC via an FALCON 9 launch vehicle from the Air Force Eastern Test Range (AFETR). Payload-class satellites include a variety of spacecraft equipped with specific instruments for various scientific and technological missions. These include communications satellites like Starlink; space stations such as the ISS; scientific satellites like the Hubble; Earth observation satellites from companies like Planet Labs, Umbra, and HawkEye 360; GPS; miniature CubeSats for education and research; and military/defense satellites.

Loading next visibility...
Identifier
57301, 2023-096M
Orbit
LEO
Country
Flag of USUS
Related business
Manufacturer
SpaceX/Seattle
Mission
Operational Commercial Communications
Bus & Motor
STARLINK V2M, Unknown motor
Mass
730 kg wet, ~700 kg dry
Launch date (UTC)
2023-07-10 (2 years ago)
Launch vehicle
FALCON 9
Launch site
Air Force Eastern Test Range (AFETR)
Object type
Payload
Rocket body
Debris
Shape & HBR
Box + 2 Pan, 17.7 m
Radar Cross Section
33.884 m², Large (>1 m²)

Expand to show TLE details & history
Last TLE update: 19 hours ago

TLE from 19 hours ago
0 STARLINK-30201
1 57301U 23096M   25340.79482331  .00001099  00000-0  96417-4 0  9997
2 57301  43.0053   7.9259 0001226 277.2135  82.8568 15.02542131132741
Epoch: 2025-12-06T19:04Z
TLE epoch observation values (Epoch: 2025-12-06T19:04:32.733Z)
Latitude
-0.00004°
Longitude
5.97203°
Altitude
558.734 km
Speed
7.584 km/s
True Right ascension
00h 31m 42s
True Declination
0° 00' 00"
Sunlit
Object was in daylight at epoch
Visualization orbit readout
Latitude
Unknown
Longitude
Unknown
Altitude
Unknown
Speed
Unknown
Apparent Right ascension
Unknown
Apparent Declination
Unknown
Sunlit
N/A
Visualization observer readout
Local Sidereal Time
12:22:42
Azimuth
Unknown
Elevation
Unknown
Doppler factor
Unknown
Orbital elements
Apogee altitude
561.834 km
Perigee altitude
560.133 km
Semi-major axis
6,939.121 km
Eccentricity
0.00012
Inclination
43.0053°
RAAN
7.9259°
Arg. of periapsis
277.2135°
True anomaly
82.87074°
Mean anomaly
82.8568°
Eccentric anomaly
82.86377°
Mean motion
3.7548 °/min
Orbital period
95.88 mins
BSTAR
0.000096417
Loading maneuver chart data...
Computing Atmospheric mass density...
Loading historical data...
Loading historical data...
Loading historical data...
Loading historical data...
Loading historical data...
Loading historical data...
Loading historical data...

Documentation

Showing up to 5 results
|